User: anonymous   Login
Location: Unspecified
(0.0000°N, 0.0000°E)
Time: 13:53:02
(UTC+01:00)
Language:

Cosmos 1437 - Orbit

View from above orbital plane
View from above orbital plane
View from above satellite
View from above satellite

Ground track
Ground track

The orbit data is extracted from the following two-line orbital elements,

1 13770U 83003A   14303.96286703  .00014095  00000-0  43675-3 0  6921
2 13770 081.1656 234.2286 0011059 023.6914 021.5962 15.33260091738367
Epoch (UTC): 30 October 2014 23:06:31
Eccentricity: 0.0011059
inclination: 81.1656°
perigee height: 458 km
apogee height: 473 km
right ascension of ascending node: 234.2286°
argument of perigee: 23.6914°
revolutions per day: 15.33260091
mean anomaly at epoch: 21.5962°
orbit number at epoch: 73836

The dashed part of the orbit path shows where the satellite is in the earth's shadow,  

DLR